Location: PACMO
(41.3967°N, 90.3760°W)
Time: 14:29:37
(UTC-06:00)

Amateur Radio Satellites - All Passes

Search period start: 26 January 2015 13:59
Search period end: 27 January 2015 13:59
Location: PACMO, 41.3967°N, 90.3760°W

Satellite Date Start Highest point End Downlink Frequencies (MHz)
Time Altitude Azimuth
AIST 2 26 Jan 14:03:27 14:05:11 12° 251° (WSW) 14:06:42 435.215
RS-15 26 Jan 14:03:48 14:15:10 74° 54° (NE) 14:27:04 29.354- 29.394
BEESAT 26 Jan 14:10:39 14:15:18 51° 288° (WNW) 14:19:54 436.000
ITUPSAT 1 26 Jan 14:12:29 14:17:08 50° 288° (WNW) 14:21:45 437.325
CUSAT 1 26 Jan 14:17:06 14:22:01 22° 59° (ENE) 14:26:15 437.405
PCSat 26 Jan 14:26:25 14:31:49 70° 244° (WSW) 14:37:12 145.827
HORYU 2 26 Jan 14:32:45 14:37:15 80° 76° (ENE) 14:41:47 437.375
GONETS M04 26 Jan 14:35:37 14:42:11 24° 278° (W) 14:48:24
PHONESAT 2.4 26 Jan 14:37:04 14:40:34 44° 198° (SSW) 14:44:05 2401.200-2431.200
ITAMSAT 1 26 Jan 14:42:24 14:46:17 21° 268° (W) 14:50:03 435.822/435.867
M-CUBED/EXP-1 PRIME 26 Jan 15:04:08 15:07:02 28° 102° (ESE) 15:10:01 437.505
DANDE 26 Jan 15:13:17 15:20:20 52° 72° (ENE) 15:25:39 436.750
Gurwin Techsat 1B 26 Jan 15:22:27 15:25:17 14° 272° (W) 15:27:49 435.225
KKS-1 26 Jan 15:22:46 15:27:02 42° 289° (WNW) 15:31:14 437.445
STARS 26 Jan 15:23:19 15:27:44 62° 287° (WNW) 15:32:06 437.465
AO-7 26 Jan 15:30:43 15:39:06 75° 255° (WSW) 15:47:31 29.400- 29.500
VERMONT LUNAR 26 Jan 15:36:11 15:38:03 14° 212° (SSW) 15:39:51 437.305
AUBIESAT-1 26 Jan 15:39:42 15:43:00 81° 107° (ESE) 15:46:23 437.475
JAS-2 26 Jan 15:45:10 15:50:44 65° 74° (ENE) 15:55:57 435.910
CUSAT 1 26 Jan 15:59:22 16:05:54 57° 267° (W) 16:10:47 437.405
PHONESAT 2.4 26 Jan 16:16:53 16:18:39 13° 213° (SSW) 16:20:20 2401.200-2431.200
RS-15 26 Jan 16:17:08 16:26:53 32° 253° (WSW) 16:36:34 29.354- 29.394
Cubesat XI-IV 26 Jan 16:21:10 16:25:07 22° 64° (ENE) 16:29:12 437.490
O/OREOS (USA 219) 26 Jan 16:30:07 16:34:28 55° 109° (ESE) 16:38:54 437.305
MOZHAYETS 4 26 Jan 16:39:16 16:43:44 51° 99° (E) 16:48:11
M-CUBED/EXP-1 PRIME 26 Jan 16:39:52 16:41:55 15° 297° (WNW) 16:43:52 437.505
CUTE-I 26 Jan 16:41:16 16:45:53 32° 68° (ENE) 16:50:37 437.470
DANDE 26 Jan 16:57:43 17:03:07 24° 277° (W) 17:07:23 436.750
AO-7 26 Jan 17:29:23 17:33:31 14° 275° (W) 17:36:59 29.400- 29.500
JAS-2 26 Jan 17:33:10 17:36:24 15° 270° (W) 17:39:16 435.910
YUBILEINY 26 Jan 17:48:14 17:49:15 10° 75° (ENE) 17:51:03 435.215
SO-50 26 Jan 17:51:30 17:53:22 12° 33° (NNE) 17:55:24 436.795
Cubesat XI-IV 26 Jan 17:59:45 18:04:54 50° 260° (W) 18:10:06 437.490
PRISM 26 Jan 18:05:21 18:09:17 42° 99° (E) 18:13:15 437.425
O/OREOS (USA 219) 26 Jan 18:11:24 18:14:20 16° 308° (NW) 18:17:09 437.305
BRITE-PL 26 Jan 18:16:12 18:17:07 11° 58° (ENE) 18:18:21 437.365/2234.400
MOZHAYETS 4 26 Jan 18:17:40 18:20:37 17° 295° (WNW) 18:23:24
CUTE-I 26 Jan 18:21:11 18:25:57 33° 264° (W) 18:30:43 437.470
CUBESAT XI-V 26 Jan 18:23:05 18:27:37 48° 98° (E) 18:32:10 437.345
HO-68 26 Jan 18:43:53 18:49:40 29° 61° (ENE) 18:55:37 435.675
CUTE 1.7 + AOD 2 26 Jan 18:43:58 18:44:50 11° 63° (ENE) 18:45:57 437.475
DOVE 4 26 Jan 18:51:57 18:53:49 12° 60° (ENE) 18:55:57 437.250
STRAND 1 26 Jan 18:55:29 19:00:38 69° 103° (ESE) 19:05:46 437.568
SEEDS 26 Jan 19:16:20 19:19:25 20° 68° (ENE) 19:22:38 437.485
SO-50 26 Jan 19:30:08 19:35:01 59° 54° (NE) 19:39:53 436.795
YUBILEINY 26 Jan 19:36:01 19:44:31 64° 93° (E) 19:53:07 435.215
PRISM 26 Jan 19:41:49 19:44:33 17° 294° (WNW) 19:47:08 437.425
UWE-3 26 Jan 19:43:46 19:44:03 10° 61° (ENE) 19:44:36 435.000/436.395/437.385
COMPASS 1 26 Jan 19:46:17 19:50:07 35° 71° (ENE) 19:54:00 437.405
BRITE-PL 26 Jan 19:49:46 19:54:41 78° 77° (ENE) 20:00:05 437.365/2234.400
CANX-2 26 Jan 19:51:23 19:55:38 63° 75° (ENE) 19:59:55 2200.000
GOMX 1 26 Jan 20:00:01 20:04:57 70° 75° (ENE) 20:10:16 467.674
CUBESAT XI-V 26 Jan 20:01:30 20:04:45 19° 294° (WNW) 20:07:54 437.345
Oscar 11 26 Jan 20:07:45 20:11:24 27° 70° (ENE) 20:15:07 145.826/435.025
AAUSAT CUBESAT 2 26 Jan 20:14:28 20:18:38 64° 75° (ENE) 20:22:50 437.432
CUTE 1.7 + AOD 2 26 Jan 20:15:57 20:20:15 76° 258° (WSW) 20:24:33 437.475
DOVE 4 26 Jan 20:25:51 20:30:49 89° 53° (NE) 20:36:05 437.250
DELFI C3 26 Jan 20:26:36 20:30:17 33° 71° (ENE) 20:33:59 145.870
CUBEBUG 2 26 Jan 20:29:35 20:33:50 35° 70° (ENE) 20:38:12 437.445
HO-68 26 Jan 20:29:58 20:37:01 59° 259° (WSW) 20:44:04 435.675
CINEMA 3 26 Jan 20:34:17 20:39:06 65° 75° (ENE) 20:44:07 145.822/145.860
STRAND 1 26 Jan 20:36:12 20:39:20 16° 298° (WNW) 20:42:15 437.568
UKube-1 26 Jan 20:41:08 20:45:06 37° 71° (ENE) 20:49:09 .
ZACube-1 26 Jan 20:49:48 20:54:03 39° 72° (ENE) 20:58:22 437.345
SEEDS 26 Jan 20:51:08 20:55:05 35° 263° (W) 20:59:00 437.485
DX 1 26 Jan 20:58:09 21:02:26 61° 74° (ENE) 21:06:45 434.975-435.025
FUNcube-1 26 Jan 21:02:32 21:06:58 52° 73° (ENE) 21:11:29 145.935
ESTCUBE 1 26 Jan 21:05:41 21:07:24 12° 63° (ENE) 21:09:20 437.505/2401.250
AISAT 26 Jan 21:09:34 21:13:25 30° 69° (ENE) 21:17:21 437.250
SO-50 26 Jan 21:11:49 21:15:11 18° 249° (WSW) 21:18:24 436.795
UWE-3 26 Jan 21:15:15 21:19:55 86° 75° (ENE) 21:24:39 435.000/436.395/437.385
HUMSAT D 26 Jan 21:15:16 21:19:18 39° 72° (ENE) 21:23:24 437.325/437.525
50 SAT 26 Jan 21:18:03 21:21:41 31° 71° (ENE) 21:25:22 437.505
COMPASS 1 26 Jan 21:22:51 21:25:59 19° 268° (W) 21:29:02 437.405
CANX-2 26 Jan 21:30:36 21:32:06 11° 272° (W) 21:33:19 2200.000
BRITE-PL 26 Jan 21:31:53 21:34:05 12° 276° (W) 21:36:01 437.365/2234.400
YUBILEINY 26 Jan 21:34:47 21:42:06 28° 294° (WNW) 21:49:13 435.215
VELOX 1 26 Jan 21:38:48 21:43:09 60° 73° (ENE) 21:47:32 145.980
GOMX 1 26 Jan 21:41:03 21:43:48 14° 274° (W) 21:46:20 467.674
Oscar 11 26 Jan 21:43:49 21:47:34 27° 265° (W) 21:51:15 145.826/435.025
AAUSAT CUBESAT 2 26 Jan 21:53:47 21:54:50 11° 272° (W) 21:55:36 437.432
CUBEBUG 1 26 Jan 21:56:13 22:00:10 36° 71° (ENE) 22:04:12 437.445
NANOSAT C BR1 26 Jan 21:59:47 22:02:08 15° 90° (E) 22:04:41 145.865
DELFI C3 26 Jan 22:02:38 22:05:39 19° 268° (W) 22:08:34 145.870
ISS 26 Jan 22:05:08 22:07:51 24° 135° (SE) 22:10:37 145.825
UNISAT 6 26 Jan 22:06:18 22:10:15 30° 95° (E) 22:14:08 437.425
CUBEBUG 2 26 Jan 22:06:41 22:10:38 25° 267° (W) 22:14:32 437.445
DOVE 4 26 Jan 22:08:40 22:09:30 10° 277° (W) 22:09:59 437.250
QB50P2 26 Jan 22:11:47 22:15:00 21° 93° (E) 22:18:17 145.880/145.840
CINEMA 3 26 Jan 22:14:07 22:16:53 14° 273° (W) 22:19:26 145.822/145.860
UKube-1 26 Jan 22:18:17 22:21:27 19° 267° (W) 22:24:32 .
QB50P1 26 Jan 22:21:50 22:25:27 26° 95° (E) 22:29:05 145.935-145.965
ZACube-1 26 Jan 22:27:04 22:30:37 21° 268° (W) 22:34:03 437.345
POLYITAN 1 26 Jan 22:34:25 22:38:26 36° 97° (E) 22:42:25 437.675
DX 1 26 Jan 22:37:22 22:39:11 12° 271° (W) 22:40:47 434.975-435.025
ESTCUBE 1 26 Jan 22:39:18 22:43:47 71° 258° (WSW) 22:48:16 437.505/2401.250
TISAT 1 26 Jan 22:40:08 22:43:37 26° 69° (ENE) 22:47:12 437.305
FUNcube-1 26 Jan 22:40:50 22:43:42 16° 271° (W) 22:46:24 145.935
ANTELSAT 26 Jan 22:41:41 22:46:12 75° 102° (ESE) 22:50:34 437.575/2403.000
AISAT 26 Jan 22:46:20 22:50:04 25° 266° (W) 22:53:46 437.250
BUGSAT 1 26 Jan 22:48:00 22:52:01 39° 98° (E) 22:56:03 437.445
TIGRISAT 26 Jan 22:51:08 22:55:40 89° 284° (WNW) 23:00:02 435.000
HUMSAT D 26 Jan 22:52:10 22:55:19 19° 269° (W) 22:58:20 437.325/437.525
50 SAT 26 Jan 22:53:37 22:56:52 21° 267° (W) 23:00:03 437.505
AIST 1 26 Jan 22:54:22 22:58:43 74° 264° (W) 23:03:04
POPSAT HIP 1 26 Jan 22:55:47 23:00:06 63° 101° (E) 23:04:22 437.405
DUCHIFAT 1 26 Jan 23:00:06 23:04:25 70° 101° (ESE) 23:08:42 145.980
VELOX 1 26 Jan 23:18:10 23:20:13 13° 271° (W) 23:22:03 145.980
SWISSCUBE 26 Jan 23:25:21 23:28:05 16° 63° (ENE) 23:31:00 437.505
SPROUT 26 Jan 23:28:19 23:32:37 89° 94° (E) 23:36:59 437.525
CUBEBUG 1 26 Jan 23:33:27 23:36:43 20° 268° (W) 23:39:53 437.445
NANOSAT C BR1 26 Jan 23:34:11 23:38:22 48° 287° (WNW) 23:42:29 145.865
BEESAT 26 Jan 23:40:54 23:44:20 21° 66° (ENE) 23:47:54 436.000
ISS 26 Jan 23:41:07 23:44:15 40° 331° (NNW) 23:47:24 145.825
ITUPSAT 1 26 Jan 23:42:59 23:46:27 21° 66° (ENE) 23:50:05 437.325
UNISAT 6 26 Jan 23:43:14 23:46:58 25° 292° (WNW) 23:50:32 437.425
GONETS M04 26 Jan 23:46:38 23:51:00 16° 78° (ENE) 23:55:54
QB50P2 26 Jan 23:47:06 23:51:02 34° 289° (WNW) 23:54:55 145.880/145.840
QB50P1 26 Jan 23:57:37 00:01:19 27° 291° (WNW) 00:04:56 145.935-145.965
POLYITAN 1 27 Jan 00:10:54 00:14:10 21° 293° (WNW) 00:17:19 437.675
TISAT 1 27 Jan 00:15:46 00:19:24 27° 265° (W) 00:23:01 437.305
ANTELSAT 27 Jan 00:20:48 00:22:26 12° 298° (WNW) 00:23:50 437.575/2403.000
BUGSAT 1 27 Jan 00:24:12 00:27:17 19° 293° (WNW) 00:30:15 437.445
POPSAT HIP 1 27 Jan 00:33:30 00:35:32 13° 296° (WNW) 00:37:22 437.405
DUCHIFAT 1 27 Jan 00:38:10 00:39:46 12° 297° (WNW) 00:41:10 145.980
KKS-1 27 Jan 00:45:52 00:48:52 18° 66° (ENE) 00:52:00 437.445
STARS 27 Jan 00:46:57 00:48:42 12° 63° (ENE) 00:50:40 437.465
AUBIESAT-1 27 Jan 00:57:20 00:57:51 10° 61° (ENE) 00:58:34 437.475
SWISSCUBE 27 Jan 01:00:50 01:05:32 60° 259° (W) 01:10:15 437.505
O/OREOS (USA 219) 27 Jan 01:02:16 01:04:24 13° 50° (NE) 01:06:44 437.305
Oscar 19 27 Jan 01:04:14 01:09:01 38° 97° (E) 01:13:48 437.125/150
ITAMSAT 1 27 Jan 01:15:24 01:18:39 17° 90° (E) 01:22:07 435.822/435.867
BEESAT 27 Jan 01:17:23 01:21:56 44° 261° (W) 01:26:29 436.000
ISS 27 Jan 01:19:22 01:21:26 15° 351° (N) 01:23:30 145.825
ITUPSAT 1 27 Jan 01:19:35 01:24:07 43° 262° (W) 01:28:40 437.325
GONETS M04 27 Jan 01:37:52 01:46:39 83° 96° (E) 01:55:25
M-CUBED/EXP-1 PRIME 27 Jan 01:53:02 01:57:02 49° 69° (ENE) 02:00:45 437.505
Gurwin Techsat 1B 27 Jan 01:55:58 02:00:30 29° 94° (E) 02:05:06 435.225
STARS 27 Jan 02:20:15 02:24:41 70° 258° (WSW) 02:29:09 437.465
KKS-1 27 Jan 02:20:56 02:25:14 45° 261° (W) 02:29:33 437.445
AIST 2 27 Jan 02:23:05 02:25:15 14° 110° (ESE) 02:27:37 435.215
HORYU 2 27 Jan 02:25:40 02:28:12 15° 90° (E) 02:30:54 437.375
AUBIESAT-1 27 Jan 02:28:21 02:32:29 70° 254° (WSW) 02:36:16 437.475
BEESAT 2 27 Jan 02:38:53 02:42:51 49° 118° (ESE) 02:46:53 435.950
O/OREOS (USA 219) 27 Jan 02:39:52 02:44:29 76° 250° (WSW) 02:49:03 437.305
Oscar 19 27 Jan 02:43:55 02:48:14 27° 293° (WNW) 02:52:25 437.125/150
DANDE 27 Jan 02:44:02 02:47:34 14° 78° (ENE) 02:51:48 436.750
ITAMSAT 1 27 Jan 02:53:28 02:58:37 59° 288° (WNW) 03:03:45 435.822/435.867
BEESAT 3 27 Jan 02:55:32 02:59:38 86° 123° (ESE) 03:03:49 437.485
ISS 27 Jan 02:56:45 02:58:55 16° 11° (N) 03:01:07 145.825
CUSAT 1 27 Jan 03:22:52 03:29:41 33° 87° (E) 03:37:00 437.405
PCSat 27 Jan 03:27:40 03:30:24 15° 105° (ESE) 03:33:25 145.827
M-CUBED/EXP-1 PRIME 27 Jan 03:30:07 03:32:14 13° 263° (W) 03:34:06 437.505
AO-7 27 Jan 03:32:37 03:40:10 38° 97° (E) 03:47:48 29.400- 29.500
Gurwin Techsat 1B 27 Jan 03:35:42 03:40:34 36° 291° (WNW) 03:45:22 435.225
GONETS M04 27 Jan 03:38:12 03:44:45 22° 298° (WNW) 03:50:55
MOZHAYETS 4 27 Jan 03:41:17 03:45:41 49° 73° (ENE) 03:50:08
AIST 2 27 Jan 03:59:15 04:03:27 58° 306° (NW) 04:07:43 435.215
HORYU 2 27 Jan 04:00:55 04:05:14 49° 288° (WNW) 04:09:30 437.375
BEESAT 2 27 Jan 04:18:16 04:21:21 19° 317° (NW) 04:24:24 435.950
DANDE 27 Jan 04:21:46 04:29:39 68° 95° (E) 04:38:19 436.750
RS-15 27 Jan 04:27:57 04:37:58 46° 111° (ESE) 04:48:11 29.354- 29.394
ISS 27 Jan 04:32:49 04:36:03 48° 30° (NNE) 04:39:16 145.825
STRAND 1 27 Jan 04:35:47 04:37:59 13° 61° (ENE) 04:40:24 437.568
BEESAT 3 27 Jan 04:36:20 04:38:26 13° 322° (NW) 04:40:25 437.485
JAS-2 27 Jan 04:37:26 04:42:57 57° 101° (E) 04:49:07 435.910
PRISM 27 Jan 04:56:16 04:59:54 32° 70° (ENE) 05:03:36 437.425
CUTE-I 27 Jan 05:00:06 05:01:58 12° 87° (E) 05:04:11 437.470
CUSAT 1 27 Jan 05:04:22 05:12:21 61° 285° (WNW) 05:20:43 437.405
PCSat 27 Jan 05:07:50 05:13:15 76° 300° (WNW) 05:18:43 145.827
MOZHAYETS 4 27 Jan 05:20:16 05:23:16 16° 270° (W) 05:26:05
AO-7 27 Jan 05:25:14 05:33:12 50° 296° (WNW) 05:41:02 29.400- 29.500
CUBESAT XI-V 27 Jan 05:26:41 05:31:03 46° 73° (ENE) 05:35:30 437.345
YUBILEINY 27 Jan 05:46:21 05:53:52 32° 68° (ENE) 06:01:35 435.215
DANDE 27 Jan 06:06:46 06:13:54 30° 296° (WNW) 06:21:12 436.750
ISS 27 Jan 06:09:49 06:12:23 20° 226° (SW) 06:14:51 145.825
STRAND 1 27 Jan 06:11:28 06:16:35 83° 259° (WSW) 06:21:43 437.568
Cubesat XI-IV 27 Jan 06:16:43 06:22:04 66° 101° (E) 06:27:26 437.490
JAS-2 27 Jan 06:23:41 06:27:50 21° 295° (WNW) 06:32:06 435.910
PRISM 27 Jan 06:32:24 06:35:32 20° 267° (W) 06:38:35 437.425
CUTE-I 27 Jan 06:37:26 06:42:50 83° 285° (WNW) 06:48:13 437.470
RS-15 27 Jan 06:39:33 06:50:12 55° 313° (NW) 07:01:00 29.354- 29.394
CUSAT 1 27 Jan 06:53:06 06:57:23 14° 306° (NW) 07:01:09 437.405
PCSat 27 Jan 06:54:39 06:57:42 15° 322° (NW) 07:00:35 145.827
CUBESAT XI-V 27 Jan 07:05:43 07:08:50 17° 270° (W) 07:11:46 437.345
AO-7 27 Jan 07:21:29 07:24:11 12° 317° (NW) 07:26:24 29.400- 29.500
CANX-2 27 Jan 07:39:39 07:40:27 11° 87° (E) 07:41:31 2200.000
YUBILEINY 27 Jan 07:42:41 07:51:14 58° 269° (W) 07:59:45 435.215
BRITE-PL 27 Jan 07:55:02 07:59:55 29° 92° (E) 08:04:44 437.365/2234.400
HO-68 27 Jan 07:58:03 08:03:53 27° 93° (E) 08:09:52 435.675
Cubesat XI-IV 27 Jan 07:58:08 08:01:42 18° 298° (WNW) 08:05:06 437.490
CUTE 1.7 + AOD 2 27 Jan 08:02:23 08:05:17 18° 92° (E) 08:08:17 437.475
GOMX 1 27 Jan 08:02:49 08:07:06 24° 91° (E) 08:11:21 467.674
CUTE-I 27 Jan 08:20:07 08:22:12 12° 301° (WNW) 08:23:59 437.470
VERMONT LUNAR 27 Jan 08:23:13 08:24:33 12° 147° (SSE) 08:25:58 437.305
DOVE 4 27 Jan 08:25:56 08:30:20 27° 92° (E) 08:34:39 437.250
CINEMA 3 27 Jan 08:31:02 08:34:00 16° 88° (E) 08:37:04 145.822/145.860
SEEDS 27 Jan 08:35:35 08:39:28 36° 97° (E) 08:43:20 437.485
DX 1 27 Jan 08:49:37 08:50:08 10° 88° (E) 08:50:57 434.975-435.025
NANOSAT C BR1 27 Jan 08:53:52 08:55:34 12° 64° (ENE) 08:57:28 145.865
RS-15 27 Jan 08:57:33 09:05:55 23° 344° (NNW) 09:14:17 29.354- 29.394
COMPASS 1 27 Jan 09:05:18 09:09:28 67° 101° (E) 09:13:36 437.405
UNISAT 6 27 Jan 09:05:19 09:09:21 30° 69° (ENE) 09:13:29 437.425
QB50P2 27 Jan 09:05:43 09:08:26 17° 66° (ENE) 09:11:18 145.880/145.840
UWE-3 27 Jan 09:06:48 09:09:47 18° 90° (E) 09:12:52 435.000/436.395/437.385
PHONESAT 2.4 27 Jan 09:07:39 09:09:44 15° 149° (SSE) 09:11:55 2401.200-2431.200
CANX-2 27 Jan 09:12:43 09:16:56 64° 285° (WNW) 09:21:05 2200.000
QB50P1 27 Jan 09:15:22 09:18:32 21° 67° (ENE) 09:21:49 145.935-145.965
POLYITAN 1 27 Jan 09:27:59 09:31:40 29° 69° (ENE) 09:35:26 437.675
Oscar 11 27 Jan 09:30:27 09:34:41 53° 99° (E) 09:38:53 145.826/435.025
VELOX 1 27 Jan 09:31:49 09:33:13 12° 88° (E) 09:34:54 145.980
BRITE-PL 27 Jan 09:33:12 09:38:31 40° 290° (WNW) 09:43:38 437.365/2234.400
AAUSAT CUBESAT 2 27 Jan 09:33:26 09:37:34 66° 286° (WNW) 09:41:40 437.432
CUTE 1.7 + AOD 2 27 Jan 09:37:28 09:41:25 37° 288° (WNW) 09:45:16 437.475
BUGSAT 1 27 Jan 09:38:46 09:42:12 27° 69° (ENE) 09:45:46 437.445
GOMX 1 27 Jan 09:40:15 09:45:28 46° 289° (WNW) 09:50:28 467.674
ANTELSAT 27 Jan 09:40:23 09:45:04 67° 74° (ENE) 09:49:46 437.575/2403.000
DELFI C3 27 Jan 09:41:35 09:45:35 57° 100° (E) 09:49:33 145.870
HO-68 27 Jan 09:45:03 09:52:03 57° 291° (WNW) 09:59:00 435.675
SO-50 27 Jan 09:46:28 09:49:25 18° 111° (ESE) 09:52:36 436.795
POPSAT HIP 1 27 Jan 09:48:47 09:52:53 47° 72° (ENE) 09:57:03 437.405
TIGRISAT 27 Jan 09:49:27 09:54:10 82° 78° (ENE) 09:58:55 435.000
DUCHIFAT 1 27 Jan 09:52:46 09:56:53 52° 73° (ENE) 10:01:05 145.980
CUBEBUG 2 27 Jan 09:57:15 10:01:54 74° 101° (ESE) 10:06:21 437.445
VERMONT LUNAR 27 Jan 09:58:51 10:02:10 42° 161° (SSE) 10:05:31 437.305
DOVE 4 27 Jan 10:03:22 10:08:12 37° 290° (WNW) 10:12:46 437.250
UKube-1 27 Jan 10:04:28 10:08:50 70° 102° (ESE) 10:13:11 .
CINEMA 3 27 Jan 10:06:52 10:11:40 53° 287° (WNW) 10:16:14 145.822/145.860
SEEDS 27 Jan 10:12:02 10:15:06 19° 293° (WNW) 10:18:01 437.485
ZACube-1 27 Jan 10:14:46 10:19:16 81° 102° (ESE) 10:23:37 437.345
DX 1 27 Jan 10:22:35 10:26:59 72° 286° (WNW) 10:31:22 434.975-435.025
NANOSAT C BR1 27 Jan 10:26:44 10:30:58 64° 259° (W) 10:35:15 145.865
FUNcube-1 27 Jan 10:27:32 10:32:01 75° 285° (WNW) 10:36:20 145.935
50 SAT 27 Jan 10:32:09 10:36:07 49° 99° (E) 10:40:02 437.505
ESTCUBE 1 27 Jan 10:32:37 10:36:15 24° 94° (E) 10:39:59 437.505/2401.250
HUMSAT D 27 Jan 10:35:15 10:39:31 75° 101° (ESE) 10:43:42 437.325/437.525
AISAT 27 Jan 10:36:24 10:40:53 61° 101° (E) 10:45:21 437.250
QB50P2 27 Jan 10:39:57 10:44:03 44° 262° (W) 10:48:11 145.880/145.840
UNISAT 6 27 Jan 10:42:00 10:46:08 29° 265° (W) 10:50:13 437.425
UWE-3 27 Jan 10:42:19 10:46:39 43° 288° (WNW) 10:50:48 435.000/436.395/437.385
COMPASS 1 27 Jan 10:43:20 10:44:42 11° 296° (WNW) 10:45:52 437.405
AIST 2 27 Jan 10:43:58 10:46:09 14° 38° (NE) 10:48:27 435.215
PHONESAT 2.4 27 Jan 10:44:20 10:47:51 49° 163° (SSE) 10:51:23 2401.200-2431.200
QB50P1 27 Jan 10:50:20 10:54:15 34° 263° (W) 10:58:11 145.935-145.965
BEESAT 2 27 Jan 10:58:48 11:02:36 33° 49° (NE) 11:06:24 435.950
POLYITAN 1 27 Jan 11:04:02 11:07:37 25° 266° (W) 11:11:10 437.675
VELOX 1 27 Jan 11:05:53 11:10:22 67° 286° (WNW) 11:14:49 145.980
Oscar 11 27 Jan 11:08:01 11:10:29 15° 295° (WNW) 11:12:47 145.826/435.025
BUGSAT 1 27 Jan 11:14:23 11:17:43 24° 266° (W) 11:21:04 437.445
RS-15 27 Jan 11:14:52 11:23:28 25° 19° (NNE) 11:32:32 29.354- 29.394
BEESAT 3 27 Jan 11:15:04 11:19:10 53° 54° (NE) 11:23:11 437.485
SPROUT 27 Jan 11:16:24 11:19:00 16° 90° (E) 11:21:46 437.525
DELFI C3 27 Jan 11:18:43 11:20:25 12° 295° (WNW) 11:21:56 145.870
ANTELSAT 27 Jan 11:20:13 11:22:24 13° 272° (W) 11:24:21 437.575/2403.000
CUBEBUG 1 27 Jan 11:20:57 11:25:24 75° 102° (ESE) 11:29:51 437.445
AIST 1 27 Jan 11:23:54 11:28:06 65° 95° (E) 11:32:21
SO-50 27 Jan 11:25:06 11:29:35 53° 308° (NW) 11:34:14 436.795
POPSAT HIP 1 27 Jan 11:26:34 11:29:07 15° 270° (W) 11:31:32 437.405
DUCHIFAT 1 27 Jan 11:30:54 11:33:09 14° 271° (W) 11:35:13 145.980
TIGRISAT 27 Jan 11:30:57 11:31:37 10° 274° (W) 11:31:58 435.000
CUBEBUG 2 27 Jan 11:36:06 11:38:00 12° 298° (WNW) 11:39:41 437.445
HO-68 27 Jan 11:36:11 11:38:28 11° 310° (NW) 11:40:18 435.675
VERMONT LUNAR 27 Jan 11:36:39 11:40:09 79° 180° (S) 11:43:41 437.305
UKube-1 27 Jan 11:42:44 11:44:30 12° 297° (WNW) 11:46:05 .
GONETS M04 27 Jan 11:48:21 11:56:24 41° 72° (ENE) 12:04:32
ZACube-1 27 Jan 11:53:55 11:55:01 11° 298° (WNW) 11:55:53 437.345
TISAT 1 27 Jan 11:59:56 12:04:05 46° 99° (E) 12:08:14 437.305
50 SAT 27 Jan 12:08:41 12:10:52 14° 295° (WNW) 12:12:53 437.505
ESTCUBE 1 27 Jan 12:09:09 12:13:13 33° 290° (WNW) 12:17:14 437.505/2401.250
PCSat 27 Jan 12:13:37 12:16:52 16° 40° (NE) 12:20:18 145.827
HUMSAT D 27 Jan 12:13:46 12:14:46 11° 297° (WNW) 12:15:33 437.325/437.525
AISAT 27 Jan 12:14:34 12:17:04 14° 296° (WNW) 12:19:23 437.250
Oscar 19 27 Jan 12:20:59 12:26:02 56° 73° (ENE) 12:31:09 437.125/150
AIST 2 27 Jan 12:21:08 12:25:27 87° 238° (WSW) 12:29:40 435.215
PHONESAT 2.4 27 Jan 12:22:41 12:26:20 79° 181° (S) 12:29:59 2401.200-2431.200
ITAMSAT 1 27 Jan 12:33:15 12:37:28 27° 66° (ENE) 12:41:50 435.822/435.867
BEESAT 2 27 Jan 12:37:17 12:40:43 24° 246° (WSW) 12:44:02 435.950
AO-7 27 Jan 12:45:32 12:48:17 12° 44° (NE) 12:51:31 29.400- 29.500
SPROUT 27 Jan 12:51:14 12:55:25 45° 287° (WNW) 12:59:33 437.525
BEESAT 3 27 Jan 12:54:33 12:56:55 15° 249° (WSW) 12:59:07 437.485
CUBEBUG 1 27 Jan 12:59:37 13:01:15 12° 297° (WNW) 13:02:40 437.445
SWISSCUBE 27 Jan 13:01:22 13:05:43 34° 97° (E) 13:10:05 437.505
AIST 1 27 Jan 13:05:18 13:06:22 11° 294° (WNW) 13:07:11
SO-50 27 Jan 13:10:08 13:11:19 11° 329° (NNW) 13:12:21 436.795
VERMONT LUNAR 27 Jan 13:14:46 13:18:12 53° 195° (SSW) 13:21:39 437.305
Gurwin Techsat 1B 27 Jan 13:17:00 13:22:01 45° 71° (ENE) 13:27:05 435.225
BEESAT 27 Jan 13:17:26 13:22:02 46° 99° (E) 13:26:38 436.000
ITUPSAT 1 27 Jan 13:19:57 13:24:34 48° 99° (E) 13:29:13 437.325
HORYU 2 27 Jan 13:24:40 13:27:19 16° 65° (ENE) 13:30:08 437.375
RS-15 27 Jan 13:27:47 13:38:56 60° 49° (NE) 13:50:39 29.354- 29.394
TISAT 1 27 Jan 13:36:48 13:39:36 17° 294° (WNW) 13:42:14 437.305
